User: anonymous   Login
Location: Camp Creek
(33.9000°N, 111.8167°W)
Time: 13:15:37
(UTC-07:00)
Language:

Cosmos 1656 - Orbit

View from above orbital plane
View from above orbital plane
View from above satellite
View from above satellite

Ground track
Ground track

The orbit data is extracted from the following two-line orbital elements,

1 15755U 85042A   15062.26606907  .00000185  00000-0  10790-3 0  9996
2 15755 071.1137 326.4471 0037686 271.0986 088.5822 14.20341418541859
Epoch (UTC): 03 March 2015 06:23:08
Eccentricity: 0.0037686
inclination: 71.1137°
perigee height: 797 km
apogee height: 851 km
right ascension of ascending node: 326.4471°
argument of perigee: 271.0986°
revolutions per day: 14.20341418
mean anomaly at epoch: 88.5822°
orbit number at epoch: 54185

The dashed part of the orbit path shows where the satellite is in the earth's shadow,  

DLR